Regional Weather Roundup
Issued by NWS Green Bay, WI

Home | Current Version | Previous Version | Text Only | Print | Product List | Glossary On
Versions: 1 2 3 4 5 6 7 8 9 10 11 12 13 14 15 16 17 18 19 20 21 22 23 24 25 26 27 28 29 30 31 32 33 34 35 36 37 38 39 40 41 42 43 44 45 46 47 48 49 50
000
ASUS43 KGRB 071211
RWRGRB

NORTH-CENTRAL AND NORTHEAST WISCONSIN REGIONAL WEATHER ROUNDUP
NATIONAL WEATHER SERVICE GREEN BAY WI
700 AM CDT TUE JUL 07 2015

WIZ005-009-010>012-018-019-071300-
NORTH CENTRAL WISCONSIN

CITY           SKY/WX    TMP DP  RH WIND       PRES   REMARKS
IRONWOOD       CLOUDY    54  48  82 N6        30.06R
MANITOWISH WTR CLOUDY    51  48  90 N9        30.06R
ARBOR VITAE    CLOUDY    52  47  85 N10       30.05S
EAGLE RIVER    CLOUDY    52  46  82 N10       30.04R
LAND O LAKES   CLOUDY    51  46  84 N10G16    30.06R
RHINELANDER    MOSUNNY   51  46  83 N5        30.05R
PHILLIPS       CLOUDY    47  46  96 NW5       30.07R
ANTIGO         SUNNY     51  47  87 N8        30.03R
TOMAHAWK       SUNNY     49  46  89 NW3       30.06R
MERRILL        SUNNY     51  48  91 N3        30.05R
$$

WIZ013-073-071300-
NORTHEAST WISCONSIN

CITY           SKY/WX    TMP DP  RH WIND       PRES   REMARKS
IRON MOUNTAIN  PTSUNNY   53  48  83 NW10      29.99R
MARINETTE      SUNNY     54  46  76 N10       29.98R
OCONTO         MOSUNNY   56  49  78 N5        29.99R
$$

WIZ017-030-035>037-045-071300-
CENTRAL WISCONSIN

CITY           SKY/WX    TMP DP  RH WIND       PRES   REMARKS
MEDFORD        SUNNY     50  47  92 NW7       30.07R
WAUSAU         SUNNY     54  48  80 VRB6      30.03R
MOSINEE        SUNNY     52  50  93 N9        30.05R
MARSHFIELD     SUNNY     54  46  74 N9        30.05R
WISC RAPIDS    SUNNY     55  48  77 N10       30.05R
STEVENS POINT  SUNNY     52  48  87 N8        30.04R
WAUPACA        CLOUDY    59  56  92 NW5       30.02R FOG
SHAWANO        CLOUDY    59  50  73 N7        30.01R
CLINTONVILLE   CLOUDY    57  50  77 N9        30.01R
$$

WIZ038-039-048-051-071300-
FOX VALLEY

CITY           SKY/WX    TMP DP  RH WIND       PRES   REMARKS
NWS GREEN BAY  CLOUDY    58  47  66 N12       30.00R
APPLETON       PTSUNNY   57  46  67 N7        30.00R
OSHKOSH        PTSUNNY   60  49  66 N14       29.99R
FOND DU LAC    CLOUDY    61  55  81 NE10      29.99R
$$

WIZ022-050-052-071300-
EAST CENTRAL WISCONSIN

CITY           SKY/WX    TMP DP  RH WIND       PRES   REMARKS
STURGEON BAY   PTSUNNY   55  46  71 N15G22    30.00R
MANITOWOC      CLOUDY    58  52  80 MISG      29.98R
SHEBOYGAN      CLOUDY    58  52  80 N9        29.97R
$$

LMZ563-521-522-541>543-071300-
LAKESHORE

STATION/POSITION TIME  TEMP    WIND        PRES    VSBY  WAVE
                       AIR SEA DIR/SP/G                  HT/PER
                 (UTC) (F)     (DEG/KT/KT) (MB)    (MI)  (FT/S)
SHEBOYGAN LKSHOR 1200   58     340/ 13/ 15 1015.0R
KEWAUNEE LKSHORE 1100   58     360/  8/ 16 1013.6R
ALGOMA MARINA    1141          330/ 12/ 16   N/A
NORTHPORT PIER   1100   57     340/ 19/ 24 1014.2R
N MID LAKE BUOY  1150   53 51  300/ 14/ 16 1013.5R         3/ 4
CHAMBERS ISLAND  1100   57     320/ 14/ 18 1014.6R
MENOMINEE LKSHOR 1100   54     320/ 10/ 13 1015.3R
$$



USA.gov is the U.S. government's official web portal to all federal, state and local government web resources and services.